Weather in Zamboanga

Philippines     6°56′21″N   122°04′19″E
temp.,
°C
wind,
m/s
gust,
m/s
humid.,
%
clouds,
%
prec.,
mm/h
press.,
hPa
HPBL,
m
6 march, sat
sat623:00+24se118299 0.0 101275
02:00+23ene118793 0.0 101065
05:00+22ne128483 0.0 101060
08:00+26ene127082 0.0 1012314
11:00+28sw116869 0.1 1012690
14:00+26w227984 1.1 1010499
17:00+26wnw237985 0.4 1010494
20:00+24ne128969 1.7 101156
7 march, sun
sun723:00+23nne228062 0.4 101270
02:00+22nne228356 0.4 101053
05:00+22ene12838 0.0 101075
08:00+25ne237948 0.0 1012316
11:00+29se126366 0.1 1012937
14:00+26sw117783 0.4 1009572
17:00+26wsw1180100 0.2 1009397
20:00+24nnw1189100 0.3 101091
8 march, mon
mon823:00+23nne1184100 0.0 101144
02:00+22ene2386100 0.0 101084
05:00+22ne2286100 0.0 101072
08:00+25ene1275100 0.0 1012293
11:00+29s126193 0.0 10121067
14:00+27wsw217497 0.3 1009637
17:00+25nw2381100 0.1 1009368
20:00+24nnw2388100 0.3 101093
9 march, tue
tue923:00+23ne1282100 0.0 101143
02:00+23ne1281100 0.0 101054
05:00+22ne1282100 0.0 100978
08:00+24ne2278100 0.0 1012128
11:00+28ese1265100 0.1 1012810
14:00+28ese1271100 2.1 1009622
17:00+26sw018197 2.8 1008370
20:00+24ene118854 4.6 101134
10 march, wed
wed1023:00+23ne1181100 0.0 101142
02:00+23nne128279 0.0 100948
05:00+23n118786 0.0 100941
08:00+26ene117643 0.0 1011352
11:00+27ssw117440 0.6 1011678
14:00+27wsw117766 1.8 1008570
17:00+26wnw128282 0.6 1009455
20:00+24nne228879 2.6 101161